Location: Dreilärchen
(47.9312°N, 8.6113°E)
Time: 03:02:13
(UTC+00:00)

ATLAS CENTAUR R/B - Pass Details

Date: 26 May 2022
Orbit: 443 x 688 km, 64.6° (Epoch: 07 June)

Event Time Altitude Azimuth Distance (km) Brightness Sun altitude
Rises 00:08:13 0° 310° (NW) 3,050 5.5 -20.2°
Reaches altitude 10° 00:11:09 10° 294° (WNW) 2,109 4.4 -20.1°
Enters shadow 00:14:00 19° 258° (WSW) 1,569 3.4 -20.0°
